Location: Lafig�re
(44.4503°N, 4.0357°E)
Time: 15:16:47
(UTC+00:00)

deb Explorer IX - Pass Details

Date: 23 January 2021
Orbit: 537 x 1102 km, 38.8° (Epoch: 01 March)

Event Time Altitude Azimuth Distance (km) Brightness Sun altitude
Rises 18:29:18 0° 243° (WSW) 3,635 ? -19.2°
Reaches altitude 10° 18:32:14 10° 237° (WSW) 2,601 ? -19.7°
Maximum altitude 18:37:58 41° 169° (S) 1,166 ? -20.7°
Enters shadow 18:39:40 33° 129° (SE) 1,313 ? -21.0°
Drops below altitude 10° 18:42:54 10° 100° (E) 2,230 - -21.6°
Sets 18:45:14 0° 93° (E) 3,064 - -22.0°
